Other Public Products
Issued by NWS Charleston, SC

Current Version | Previous Version | Text Only | Print | Product List | Glossary Off
Versions: 1 2 3 4 5 6 7 8 9 10 11 12 13 14 15 16 17 18 19 20 21 22 23 24 25 26 27 28 29 30 31 32 33 34 35 36 37 38 39 40 41 42 43 44 45 46 47 48 49 50

000
FPUS82 KCHS 171627
OPUCHS

TEST...KCHS/KSAV Gateway Observations...TEST
National Weather Service Charleston SC
1100 AM EST TUE JAN 17 2017

NOTE: "fair" indicates few or no clouds below 12,000 feet with no
significant weather and/or obstructions to visibility.

SCZ050-WAZ558-NCZ071-TXZ119-213-PAZ071-DCZ001-FLZ074-172-MI076-
NYZ176-178-MAZ016-IL014-TNZ027-NJZ106-GAZ044-MD014-171700-
...Gateway Observations for Charleston International...

CITY           SKY/WX    TMP DP  RH WIND       PRES   REMARKS
Chas Airport   PTSUNNY   63  57  81 W3        30.28S
Seattle        LGT RAIN  40  38  93 S5        29.77F WCI  37
Charlotte      CLOUDY    56  52  86 SW9       30.24F
Dallas DFW     PTSUNNY   49  38  65 N10       30.23R
Dallas Love    PTSUNNY   47  36  65 N5        30.23R
Philladelphia  LGT RAIN  41  36  82 S3        30.21F
Wash National  LGT RAIN  44  43  96 S7        30.15F FOG
Baltimore      LGT RAIN  42  42 100 SE7       30.12F FOG
Miami          PTSUNNY   79  62  56 E15G21    30.26R
Detroit        FOG       37  37 100 N3        29.78S VSB 1
Newark         LGT RAIN  38  34  85 SE3       30.19F FOG
Laguardia      LGT RAIN  42  34  73 E6        30.20F
J F K          LGT RAIN  40  33  76 S3        30.23F
Boston Logan   MOSUNNY   40  23  50 E7        30.25F WCI  35
Ft. Lauderdale MOSUNNY   78  62  57 SE15      30.25R
Chicago O`Hare CLOUDY    37  36  96 W9        29.86R WCI  30
Chicago Midway CLOUDY    35  35 100 W12       29.87R WCI  27
Houston Bush   LGT RAIN  60  57  89 N10       30.11R
Houston Hobby  CLOUDY    73  70  90 S9        30.08R
Nashville      CLOUDY    63  60  90 SW5       30.07R
Atlanta        PTSUNNY   65  54  67 SW9       30.24R

$$

GAZ044-118-TXZ119-213-NCZ071-DCZ001-MDZ014-506-PAZ021-071-NJZ106-
NYZ176-178-MAZ106-OHZ011-021-055-MIZ076-KYZ091-ILZ014-INZ047-
MNZ060-171700-
...Gateway Observations for Savannah International...

CITY           SKY/WX    TMP DP  RH WIND       PRES   REMARKS
Savannah Arpt  CLOUDY    61  59  93 W6        30.30R
Atlanta        PTSUNNY   65  54  67 SW9       30.24R
Charlotte      CLOUDY    56  52  86 SW9       30.24F
Dallas DFW     PTSUNNY   49  38  65 N10       30.23R
Houston Bush   LGT RAIN  60  57  89 N10       30.11R
Wash National  LGT RAIN  44  43  96 S7        30.15F FOG
Wash Dulles    CLOUDY    43  41  93 S8        30.12F FOG
Baltimore      LGT RAIN  42  42 100 SE7       30.12F FOG
Philadelphia   LGT RAIN  41  36  82 S3        30.21F
Newark         LGT RAIN  38  34  85 SE3       30.19F FOG
Laguardia      LGT RAIN  42  34  73 E6        30.20F
J F K          LGT RAIN  40  33  76 S3        30.23F
Boston         MOSUNNY   40  23  50 E7        30.25F WCI  35
Pittsburg      CLOUDY    57  54  89 S13G20    29.90F
Akron          CLOUDY    57  53  86 SW17      29.86S
Cleveland      CLOUDY    57  51  80 S13       29.83F
Cincinnati     PTSUNNY   63  57  81 SW15G22   29.91R
Columbus         N/A     62  57  85 SW18G26   29.88S
Detroit        FOG       37  37 100 N3        29.78S VSB 1
Chicago O`Hare CLOUDY    37  36  96 W9        29.86R WCI  30
Minneapolis    CLOUDY    30  24  78 N7        29.98S WCI  23
Indianapolis   CLOUDY    48  44  86 W15       29.93R

$$




USA.gov is the U.S. government's official web portal to all federal, state and local government web resources and services.